Location: gie�en
(50.5804°N, 8.6692°E)
Time: 10:34:38
(UTC+02:00)

Tiangong - Visible Passes

Search period start: 18 October 2021 00:00
Search period end: 28 October 2021 00:00
Orbit: 382 x 385 km, 41.5° (Epoch: 17 October)

Date Brightness Start Highest point End Pass type
(mag) Time Alt. Az. Time Alt. Az. Time Alt. Az.
19 Oct 3.9 20:31:35 10° SSW 20:31:47 11° SSW 20:31:47 11° SSW visible
20 Oct 3.6 19:32:34 10° S 19:33:21 11° SSE 19:34:08 10° SSE visible
21 Oct 3.3 20:07:32 10° SSW 20:09:25 15° S 20:09:25 15° S visible
22 Oct 3.6 19:07:56 10° SSW 19:09:33 13° SSE 19:11:10 10° SE visible
22 Oct 3.9 20:43:37 10° SW 20:44:14 13° SW 20:44:14 13° SW visible
23 Oct 3.3 19:43:35 10° SW 19:45:39 16° S 19:46:51 14° SSE visible
24 Oct 3.5 18:43:43 10° SSW 18:45:40 15° S 18:47:37 10° SE visible
24 Oct 3.6 20:19:58 10° SW 20:21:37 14° SSW 20:21:37 14° SSW visible
25 Oct 3.5 19:19:44 10° SW 19:21:44 16° S 19:23:45 10° SE visible
26 Oct 3.8 19:56:30 10° SW 19:57:45 12° SSW 19:58:58 10° S visible
27 Oct 3.8 18:55:55 10° SW 18:57:42 14° S 18:59:29 10° SSE visible
